ALOS-4 (DAICHI-4)

Last updated on Thu Oct 30 2025 00:02:32 GMT+0000 (Coordinated Universal Time)

1 60182U 24123A 25302.53046992 .00002760 00000+0 37629-3 0 9993 2 60182 97.9225 38.0033 0001455 100.7617 259.3758 14.79473580 71776
UTC large
Height (km)
Speed (km/s)
/
Latitude / Longitude
Inclination (degrees)
Orbital Period (minutes)
Azimuth
Elevation
Range (km)
Doppler Factor

Next 0 passes for location: London (51.5072 / 0.1276)

Sorry there are no passes over London.